Regional Weather Roundup
Issued by NWS Cleveland, OH

Home | Current Version | Previous Version | Graphics & Text | Print | Product List | Glossary On
Versions: 1 2 3 4 5 6 7 8 9 10 11 12 13 14 15 16 17 18 19 20 21 22 23 24 25 26 27 28 29 30 31 32 33 34 35 36 37 38 39 40 41 42 43 44 45 46 47 48 49 50
000
ASUS41 KCLE 110700
RWRCLE
OHIO REGIONAL WEATHER ROUNDUP
NATIONAL WEATHER SERVICE WILMINGTON, OH
200 AM EST THU FEB 11 2016

NOTE: "FAIR" INDICATES FEW OR NO CLOUDS BELOW 12,000 FEET WITH NO
SIGNIFICANT WEATHER AND/OR OBSTRUCTIONS TO VISIBILITY.

OHZ001>008-015>018-024>027-034-035-043-044-110800-
   NORTHWEST OHIO

CITY           SKY/WX    TMP DP  RH WIND       PRES   REMARKS
DEFIANCE       CLOUDY    16   8  71 W5        30.10R WCI   9
FINDLAY        FAIR       9   5  84 W7        30.07R WCI  -2
TOLEDO EXPRESS FAIR      11   2  67 W8        30.08R WCI  -1
TOLEDO EXEC    FAIR      14   4  64 NW10      30.08R WCI   1
LIMA           CLOUDY    13   6  74 W12       30.07S WCI  -1
$$

OHZ009>014-019>023-028>033-038-089-110800-
   NORTHEAST OHIO

CITY           SKY/WX    TMP DP  RH WIND       PRES   REMARKS
CLE-HOPKINS    FLURRIES  16   5  62 NW17      30.02R WCI   0
CLE-LAKEFRONT  MOCLDY    18   7  62 NW31G39   29.99R WCI  -2
CUY CO. ARPT   NOT AVBL
LORAIN-ELYRIA  FLURRIES  16   5  62 NW14G22   30.02R WCI   2
ASHTABULA      CLOUDY    14   1  56 W16G23    29.93R WCI  -2
AKRON-CANTON   HAZE      13   5  70 W16       29.96R VSB 1   WCI  -3
WOOSTER        LGT SNOW  14   9  79 NW15      29.99S WCI  -1
MANSFIELD      MOCLDY    11   6  81 W9        30.00R WCI  -2
YOUNGSTOWN     LGT SNOW  14   9  80 NW14      29.92R VSB 1   WCI  -1
$$

OHZ042-051>053-060>062-070>072-077>081-110800-
  SOUTHWEST OHIO

CITY           SKY/WX    TMP DP  RH WIND       PRES   REMARKS
CINC-COVINGTON FLURRIES  14   5  67 W5        30.14S WCI   6
CINC-LUNKEN    CLOUDY    17   7  64 NW7       30.19S WCI   8
HAMILTON       CLOUDY    13   7  77 W3        30.17S
DAYTON         NOT AVBL
WRIGHT-PAT AFB CLEAR      9   1  69 SW5       30.11S WCI   1
DAYTON GENERAL FAIR      12   4  70 W5        30.11S WCI   4
WILMINGTON     FAIR      11   3  70 W8        30.10S WCI  -1
$$

OHZ036-037-039>041-045>050-054>059-063>069-073>076-082>088-110800-
  CENTRAL AND SOUTHEAST OHIO

CITY           SKY/WX    TMP DP  RH WIND       PRES   REMARKS
COLUMBUS       CLOUDY    12   3  67 W15       30.08S WCI  -4
OSU AIRPORT    CLOUDY    12   5  73 W12       30.08S WCI  -2
BOLTON FIELD   NOT AVBL
RICKENBACK AFB NOT AVBL
NEWARK         CLOUDY    14   5  67 MISG      30.07R
MARION         FAIR      13   5  70 W12       30.06R WCI  -1
LANCASTER      CLOUDY    10   2  69 W5        30.10R WCI   2
ZANESVILLE     CLOUDY    13   4  67 SW10      30.06S WCI   0
NEW PHILLY     FLURRIES  15   8  73 W10       30.02S WCI   2
$$



USA.gov is the U.S. government's official web portal to all federal, state and local government web resources and services.